Temp_Advection
nan nan nan nan nan nan nan nan nan nan nan nan nan nan nan nan nan nan nan nan nan nan nan nan nan nan nan nan nan nan nan nan nan nan nan nan nan nan nan nan nan nan nan nan nan nan nan
nan -0 0 -0 0 -0 0 0 0 0 0 -0 -0 0 -0 -0 -0 -1 -1 -1 -1 -0 -0 -0 0 0 -0 -1 -0 0 0 -0 -0 -0 -0 -0 -0 -0 -0 -0 0 0 0 0 -0 0 nan
nan -0 -0 -0 -0 -0 -0 -0 0 0 -0 0 0 -0 0 -0 -0 -0 -1 -1 -1 -0 -0 -0 0 0 -0 -1 0 0 -0 -0 -0 -0 -0 0 0 0 -0 -0 -0 -0 -0 -0 -0 -0 nan
nan 0 -0 -0 -0 -0 -0 -0 -0 0 -0 -1 -0 0 0 0 -0 -1 -1 -1 -1 -0 -0 0 0 0 -0 -0 0 -0 0 -0 0 -0 0 1 0 0 0 0 0 0 0 -1 -1 -0 nan
nan -0 -0 -0 -0 -0 -1 -0 -0 0 0 -0 -0 -0 0 0 -0 -0 -1 -1 -1 -0 0 1 0 0 -0 0 -0 0 -0 -0 0 -0 0 0 0 0 0 0 0 0 -0 -1 -1 0 nan
nan -0 -0 -0 -0 -0 -1 -1 -0 -0 -0 -0 -0 -0 -0 -0 -0 -0 -0 -1 -1 -0 0 0 -0 -0 -0 -0 0 0 0 0 0 -0 -0 -0 0 0 -0 -0 -0 -0 -0 -0 -0 0 nan
nan -0 -0 -0 0 -0 -0 -1 -1 -0 -0 -0 -0 -0 -0 -0 -0 -0 0 -1 -1 0 0 -0 -0 -0 -0 -0 -0 0 0 0 0 0 -0 -0 0 -0 -1 -1 -1 -0 0 -0 -0 -0 nan
nan -0 0 0 -0 -0 -0 -0 -0 -0 -0 -0 -0 -0 -0 -0 -0 -0 -0 -0 -0 -0 -0 -0 -0 0 0 0 -0 -0 0 0 0 0 0 0 -0 -1 -0 0 -0 0 0 -0 -1 -0 nan
nan -0 -0 0 -0 -0 -0 -0 -0 -0 -0 -0 -0 -0 -0 -0 -0 -0 -0 0 -0 -0 -0 -0 0 0 0 -0 -0 -0 0 -0 -0 0 0 -0 0 -0 0 0 0 0 -0 -0 -0 -1 nan
nan -0 -0 0 -0 -0 -0 0 -0 -0 -0 -0 -0 0 0 -0 -0 -0 -0 0 0 -0 -0 0 0 0 0 -0 0 0 0 0 0 -0 -0 -0 -0 0 0 0 -0 -0 -0 -0 -0 -0 nan
nan -0 -0 -0 0 0 0 -0 -0 -0 -0 -0 0 0 0 0 0 -0 -0 0 0 -1 -0 -0 0 0 0 -0 -0 0 0 0 0 -0 -0 -0 0 0 -0 -0 0 0 -0 -0 -0 0 nan
nan -0 -0 -0 0 0 -0 -0 0 -0 -0 -0 -0 0 0 0 -0 -0 0 0 0 0 0 -0 0 0 0 0 -0 -0 0 0 -0 0 0 0 -0 -0 -0 0 0 -0 -0 0 0 0 nan
nan -0 -0 0 -0 -0 -0 -0 -0 -0 -0 -0 -0 0 0 -0 -0 -0 -0 -0 -0 -0 0 -0 0 0 0 0 0 0 0 0 0 0 0 -0 0 0 0 0 0 0 -0 0 0 0 nan
nan -0 -0 -0 0 -0 0 -0 -0 -0 -0 -0 -0 -0 0 0 0 -0 -0 0 -0 0 -0 -0 -0 0 0 0 -0 0 0 -0 -0 -0 -0 0 -0 -0 0 0 -0 0 0 -0 -0 -0 nan
nan -0 -0 -0 -0 0 0 -0 -0 -0 -0 -0 -0 -0 -0 0 -0 0 -0 -0 -0 0 -0 -0 -0 -0 0 0 -0 -0 -0 -0 -0 -0 -0 -0 -0 -0 -0 -0 0 -0 -0 -0 -0 0 nan
nan -0 -0 -0 -0 0 -0 -0 -0 -0 -0 0 -0 -0 0 0 0 0 -0 -0 -0 0 -0 -1 -0 -0 -0 0 0 -0 -0 -1 -0 -0 -0 0 -0 0 0 0 0 0 -0 -0 -0 -0 nan
nan -0 -0 -0 0 -0 -0 -0 -0 -0 -0 0 -0 0 0 0 0 -0 0 -0 -0 1 -0 0 -1 -0 -0 -0 -0 -0 -0 -0 -0 -0 0 -0 0 -0 -0 0 0 -0 0 -0 0 0 nan
nan -0 -0 -0 -0 -0 -0 -0 0 -0 0 0 -0 0 0 0 0 0 -0 -0 1 0 0 0 -0 -1 -0 -0 0 -0 -0 -0 -0 -0 0 0 -0 0 -0 -0 -0 -0 -0 -0 0 -0 nan
nan -0 -0 -0 -0 -0 0 0 1 0 0 -0 -0 0 0 0 -0 -0 -0 -0 0 0 0 0 0 -0 -1 -0 -0 -0 -0 -0 0 0 -0 -0 0 0 -0 -0 0 0 0 -0 0 1 nan
nan -0 -0 -0 -0 0 0 0 1 1 0 -0 0 0 0 -0 -0 -0 0 0 0 0 0 0 0 -0 -0 -0 -0 -0 -0 0 0 0 -0 -0 0 0 -0 0 -0 0 -0 -0 1 0 nan
nan -0 -0 -0 -0 -0 0 0 0 0 0 0 0 0 -0 0 -0 -0 -0 0 0 0 0 -0 0 0 -0 -0 0 -0 -0 -0 0 0 0 0 0 -0 -0 -0 0 0 -0 0 1 -0 nan
nan -0 -0 -0 -0 -0 -0 0 -0 0 0 -0 0 -0 -0 -0 -0 -0 0 0 0 0 -0 -0 0 0 -0 -0 -0 0 0 -0 -0 -0 0 0 0 -0 -0 -0 0 -0 -1 -0 0 0 nan
nan -0 0 -0 -0 0 -0 -0 0 0 -1 0 0 -0 0 -0 -0 -0 -0 -0 -0 -0 -0 0 -0 -0 -0 -0 -0 -0 -0 -0 -0 -0 -0 -0 -0 -0 -0 -0 0 -0 -0 -0 0 -0 nan
nan -0 -0 0 -0 -0 0 -0 0 0 0 0 -0 -0 -0 0 -0 0 0 -0 -0 -0 -0 0 -0 -0 -0 -0 -0 -0 0 0 0 -0 -0 -0 -0 -0 -0 -0 -0 -0 -0 -0 -0 -0 nan
nan 0 -0 0 0 -0 0 -0 -1 -0 0 -0 -0 -0 -0 -1 -0 0 0 -0 -0 -0 -0 -0 -0 -0 0 -0 -0 0 -0 -0 -0 0 0 -0 -0 -0 -0 -0 -1 -0 0 -0 0 -0 nan
nan 0 0 -0 -0 -0 -1 -0 -1 -1 -0 0 -0 -0 -0 -1 -0 -1 0 0 -0 -0 0 -0 -0 0 0 -0 -0 -0 -0 -0 -0 -0 -0 0 -0 -0 -0 -0 -0 -0 -0 -0 -0 0 nan
nan -0 0 -0 -0 -0 -1 -0 -0 -1 -1 -0 0 -0 -0 -0 -1 -1 0 0 0 0 -0 0 -0 0 0 0 -0 -0 -0 -0 0 -0 -0 -0 -0 -0 -0 -0 -1 -0 -0 -0 0 0 nan
nan -0 -0 0 0 -0 -0 -0 -0 -0 -1 -1 -0 -0 -0 -1 -2 -0 -1 -0 0 0 -0 -0 -0 -0 0 0 0 0 -0 -0 -0 -0 -0 -0 -0 -0 -0 0 -1 -0 0 0 0 -0 nan
nan nan nan nan nan nan nan nan nan nan nan nan nan nan nan nan nan nan nan nan nan nan nan nan nan nan nan nan nan nan nan nan nan nan nan nan nan nan nan nan nan nan nan nan nan nan nan
Wind_Speed
20 21 22 22 25 24 23 26 24 25 25 24 26 27 24 25 24 21 17 16 15 19 15 12 10 7 10 12 9 4 6 18 19 16 17 17 17 15 11 9 15 12 15 16 15 18 13
21 24 24 25 25 26 24 25 27 27 26 27 26 26 26 27 25 21 19 16 17 15 17 13 11 9 14 12 8 5 5 5 12 20 18 18 13 16 8 15 8 6 12 15 19 10 13
24 24 24 26 26 28 28 32 31 28 27 27 27 26 27 27 25 25 21 17 16 14 20 14 12 11 11 16 8 9 12 5 7 17 19 19 9 5 1 4 9 7 10 11 14 15 10
24 27 28 30 29 29 30 32 30 29 26 27 28 28 26 28 25 25 22 20 17 17 24 15 13 10 9 12 17 10 8 10 3 9 21 16 10 7 3 4 1 4 9 8 10 18 17
23 27 29 30 32 31 33 32 30 29 29 27 26 26 27 27 25 18 20 23 22 18 19 18 17 11 9 10 18 20 8 10 9 3 11 13 11 4 3 1 4 7 6 10 9 6 4
25 28 30 31 34 33 33 33 31 29 28 26 25 24 24 23 19 18 18 18 22 14 17 16 8 9 12 11 11 13 14 11 12 10 10 9 5 4 3 5 5 6 8 8 8 5 3
27 28 29 31 32 34 33 32 30 28 27 26 23 22 22 21 17 19 18 15 10 7 29 8 17 2 18 16 13 15 18 14 12 14 6 12 5 7 12 13 12 12 7 10 7 6 6
29 29 29 29 33 34 33 31 29 27 26 23 22 23 20 17 21 17 15 10 11 4 7 22 17 6 14 16 11 15 20 11 10 9 6 4 8 10 8 6 5 6 8 10 10 10 7
28 30 32 35 35 33 32 30 28 26 23 22 24 22 22 20 17 17 13 17 16 4 4 15 12 16 15 11 10 21 24 13 10 9 8 6 1 11 11 6 4 7 7 8 11 11 11
29 30 34 34 33 32 30 29 28 26 25 26 22 22 23 20 17 6 9 11 14 10 3 11 11 10 11 9 7 19 20 10 6 13 8 7 7 3 8 9 6 5 2 5 8 7 4
31 30 33 32 31 30 29 29 26 27 26 22 25 25 25 23 19 16 9 7 10 9 5 13 9 11 15 8 20 14 19 4 8 8 5 4 6 6 4 5 6 3 6 5 5 6 7
29 29 31 32 31 31 30 29 28 28 24 24 27 29 32 25 16 12 9 9 12 0 2 4 7 12 14 15 6 16 12 4 1 2 9 3 6 2 6 5 4 6 2 3 4 3 4
28 29 32 31 31 30 30 30 29 26 22 26 32 33 19 8 6 9 10 11 1 3 7 7 8 13 16 12 8 13 10 7 5 5 4 6 6 3 3 4 3 5 1 1 2 3 6
27 30 31 31 30 29 29 30 32 23 24 30 34 22 11 5 5 18 18 3 4 8 3 6 13 15 9 15 7 11 11 9 10 6 6 6 5 13 9 8 5 8 5 3 5 3 4
27 30 32 30 30 29 28 29 32 23 28 32 27 10 8 7 11 15 12 2 3 6 9 10 17 6 9 12 7 9 9 7 10 10 6 5 2 9 11 5 8 4 7 2 5 5 3
26 30 32 30 29 28 30 30 30 27 32 27 17 7 9 11 13 13 1 2 5 6 15 15 5 5 9 15 8 9 12 12 10 15 10 2 1 2 7 4 7 6 5 2 1 3 5
27 28 29 29 28 30 29 30 30 31 31 20 6 4 6 10 8 2 2 3 2 23 12 1 9 8 9 13 6 8 11 3 15 12 12 3 2 3 5 8 9 5 6 3 3 4 4
25 28 29 29 28 30 28 32 30 31 31 13 5 3 7 7 1 3 1 3 10 7 3 5 4 10 11 13 5 9 9 7 18 11 11 5 2 3 9 9 13 11 8 13 4 6 5
25 26 27 27 28 28 29 31 31 33 23 6 5 4 1 3 1 1 3 3 5 5 5 3 4 5 15 12 6 8 7 6 4 5 11 8 3 2 2 3 8 6 7 12 16 11 17
24 25 26 26 26 27 29 31 31 31 11 8 4 2 1 3 2 3 2 5 4 7 10 9 7 7 12 7 1 7 7 1 8 5 8 12 3 5 3 2 3 3 6 9 10 8 13
23 24 24 23 24 25 27 29 29 28 14 5 5 3 4 1 4 3 5 4 6 4 5 6 3 5 9 4 5 6 8 8 5 6 5 1 3 4 8 13 13 12 17 17 17 18 15
21 23 24 22 23 24 25 27 28 26 12 15 3 3 6 4 7 6 3 3 4 6 7 3 5 6 3 5 7 6 6 7 5 7 5 4 3 3 10 14 16 16 17 17 18 19 19
18 21 23 23 23 23 24 24 25 24 22 8 9 7 3 4 1 5 3 6 3 3 6 8 5 4 5 8 9 5 4 5 4 7 8 4 2 2 4 7 10 7 7 6 8 12 12
18 19 20 21 21 19 20 21 22 20 19 11 9 4 4 2 4 2 2 2 4 4 6 6 4 4 1 3 4 2 5 4 5 4 8 5 4 2 4 7 2 3 9 8 9 15 12
17 18 18 19 20 21 19 18 19 18 15 8 13 7 5 3 3 1 3 3 7 7 7 6 6 5 1 3 2 3 3 3 6 10 11 6 3 2 2 3 9 1 4 2 3 6 5
17 19 18 18 19 20 20 18 17 16 14 8 5 8 3 4 2 11 4 7 5 4 3 4 1 0 1 1 2 1 1 3 4 3 3 10 6 2 1 3 3 3 3 3 4 4 2
18 16 19 17 19 18 18 18 17 17 13 12 4 10 3 4 6 8 2 6 3 1 3 3 3 2 1 1 1 1 2 3 2 5 5 3 3 7 5 3 6 6 2 4 2 5 10
17 18 17 17 19 19 18 17 17 16 14 12 5 6 9 5 14 10 7 3 5 3 3 5 3 2 1 2 2 1 1 2 3 2 5 7 6 4 3 3 6 0 6 2 4 12 10
17 19 17 16 19 20 18 17 16 16 13 12 6 8 10 8 10 8 11 5 5 3 5 7 1 3 2 3 1 1 2 3 3 3 1 3 3 3 7 5 7 10 9 9 7 10 10
Wind_Direction
347 344 342 334 334 331 333 328 328 327 327 326 325 325 323 318 315 313 289 291 254 256 238 260 247 225 209 220 246 241 217 215 220 204 201 204 204 208 227 229 234 230 246 256 257 268 295
340 336 336 329 328 329 325 316 317 318 318 318 317 318 321 316 313 311 276 296 250 252 232 240 230 207 207 238 217 209 154 182 208 202 194 201 202 215 250 243 224 208 261 258 269 261 258
337 336 328 327 329 326 321 319 318 314 313 317 312 313 314 313 307 300 295 282 253 236 235 228 214 201 220 220 200 209 212 158 204 215 198 197 213 176 52 311 296 316 300 276 257 250 240
333 332 335 328 325 323 316 318 316 313 319 315 310 308 306 310 306 295 299 269 266 221 222 215 198 181 236 235 229 224 200 202 191 232 204 195 188 170 77 73 88 253 246 261 253 218 225
336 335 333 328 326 324 319 317 322 322 320 311 310 304 305 307 309 300 304 262 250 226 215 199 187 177 232 216 217 221 186 184 180 155 187 152 166 147 116 172 236 213 267 220 255 169 179
335 335 333 330 329 326 325 326 323 320 319 315 311 309 307 307 314 302 304 277 260 228 204 171 175 185 223 206 178 182 175 169 166 162 144 159 133 162 172 185 202 224 212 254 287 142 167
331 332 337 340 334 332 331 329 329 326 322 318 315 314 313 310 306 302 306 324 268 187 181 182 178 206 153 142 157 166 164 154 170 177 183 195 199 191 194 200 236 280 301 307 311 331 321
337 341 337 331 329 333 332 331 330 328 324 323 319 320 315 309 309 298 286 270 245 35 189 200 174 144 151 140 140 163 161 144 175 188 188 163 239 217 241 279 303 266 281 283 286 285 304
340 341 332 334 338 337 336 336 335 335 330 328 327 324 316 314 306 302 286 258 261 308 255 195 187 172 153 162 143 161 173 146 174 202 160 188 72 219 240 236 231 267 264 283 290 306 315
341 341 336 340 342 341 341 341 341 339 333 333 321 325 315 317 303 294 294 263 255 230 181 160 178 162 162 169 120 161 179 161 179 202 184 237 250 213 198 223 202 251 329 325 335 340 270
340 339 342 343 344 342 342 342 341 337 331 324 323 327 319 307 284 286 283 241 241 232 156 145 151 161 165 191 122 169 175 125 179 187 148 207 221 177 218 214 206 234 68 7 346 319 341
341 337 343 342 346 343 344 343 341 339 332 330 330 330 318 305 275 266 226 152 142 57 161 122 134 169 156 148 78 147 174 154 320 212 196 148 23 261 204 205 264 63 87 221 249 264 257
341 340 344 345 347 346 344 344 347 336 333 331 333 334 334 294 239 169 159 145 165 249 169 126 147 160 162 153 120 152 164 171 160 134 190 245 207 155 274 173 165 142 131 305 236 202 237
342 338 347 347 347 347 345 345 344 336 330 333 337 339 353 36 124 164 152 85 240 110 145 178 139 143 166 153 139 167 165 188 226 234 127 188 214 181 185 218 153 193 186 213 269 235 302
344 341 346 348 347 348 347 348 343 340 337 336 338 11 70 88 143 155 158 163 276 129 134 126 130 120 131 185 135 157 181 191 204 224 210 162 256 145 156 189 219 153 206 278 309 262 270
348 344 347 350 348 347 347 349 343 343 337 339 334 8 79 89 137 148 304 20 299 120 115 147 103 176 155 183 146 171 180 196 207 196 233 29 194 157 133 193 219 187 162 79 191 258 261
350 346 347 352 352 350 350 349 347 344 344 348 15 74 107 119 123 179 1 321 247 129 154 301 135 139 143 169 159 183 176 188 195 191 207 155 253 88 75 206 192 198 233 226 340 230 235
350 349 350 351 350 350 354 351 352 346 354 13 48 75 112 99 19 309 81 252 120 57 35 68 128 133 151 154 153 178 191 263 178 158 189 176 95 223 217 231 208 207 207 216 222 236 229
355 351 350 352 354 355 355 355 355 356 4 25 55 61 43 358 186 106 293 227 69 59 26 63 66 107 139 154 139 212 115 93 128 189 167 151 198 264 282 195 221 215 226 219 234 266 250
353 353 353 353 354 357 358 359 1 7 40 48 75 71 335 276 269 47 332 67 78 11 48 63 108 120 146 164 126 163 104 122 158 150 75 156 184 213 223 145 108 270 264 257 258 258 267
355 352 355 353 356 356 360 4 5 10 26 71 52 23 357 18 147 161 291 98 63 84 48 24 80 136 139 151 105 148 133 122 168 152 145 222 246 271 263 276 282 270 267 262 250 254 256
353 350 356 354 354 357 1 8 7 15 34 57 72 356 338 306 136 158 58 15 51 58 6 27 102 94 18 84 55 165 166 172 167 167 190 178 268 330 286 260 252 256 261 259 263 263 263
350 350 357 1 356 0 4 7 10 14 25 38 26 31 357 325 237 190 152 175 178 150 42 31 44 108 60 42 40 10 14 43 71 155 181 148 183 259 264 333 311 265 253 238 259 261 261
343 347 354 355 354 357 357 359 8 17 22 28 18 7 321 174 253 120 114 113 151 50 97 65 23 23 60 358 331 223 191 205 232 171 160 167 162 213 289 314 286 192 182 201 244 275 272
335 337 344 351 353 358 358 358 4 8 12 16 13 4 352 299 272 170 189 157 109 108 85 91 68 93 29 310 277 221 166 189 226 212 194 173 155 243 272 285 268 331 304 188 236 294 4
329 328 335 342 344 352 357 357 359 358 4 357 353 353 288 306 270 306 198 170 146 163 145 134 67 206 73 284 276 245 237 260 151 131 105 188 189 193 335 295 283 231 126 144 162 260 328
324 324 325 334 332 341 346 355 355 350 355 358 327 347 308 288 286 342 200 207 125 206 79 94 131 139 185 176 314 245 266 343 253 180 174 174 175 228 245 262 279 279 98 124 279 279 342
318 319 318 325 326 330 336 342 348 348 348 348 338 314 360 293 277 293 295 270 160 210 172 140 144 165 95 156 226 149 253 284 291 303 188 174 176 196 180 228 274 261 333 327 276 315 329
317 319 315 320 321 324 326 331 333 339 344 341 327 295 309 263 259 269 247 244 207 173 140 166 87 132 100 93 22 343 298 328 4 283 25 265 234 174 181 213 251 312 238 285 277 292 313
Height
1515 1511 1507 1503 1499 1494 1490 1486 1481 1477 1474 1471 1467 1463 1460 1457 1454 1451 1449 1450 1451 1452 1453 1455 1457 1459 1461 1463 1460 1458 1459 1461 1464 1467 1469 1473 1475 1477 1476 1474 1475 1475 1475 1473 1472 1470 1473
1513 1509 1506 1501 1497 1493 1488 1483 1479 1474 1470 1467 1464 1461 1457 1453 1450 1448 1446 1446 1446 1447 1449 1453 1454 1456 1459 1460 1457 1457 1458 1460 1462 1464 1467 1470 1473 1473 1473 1471 1472 1472 1474 1473 1471 1469 1473
1511 1507 1503 1498 1494 1489 1485 1479 1474 1470 1467 1463 1459 1457 1454 1450 1447 1443 1441 1441 1440 1442 1446 1448 1450 1454 1457 1455 1456 1455 1457 1460 1462 1463 1465 1469 1471 1472 1472 1472 1471 1474 1478 1474 1470 1469 1469
1509 1505 1501 1496 1491 1486 1480 1475 1469 1466 1462 1459 1455 1452 1449 1446 1442 1439 1437 1436 1435 1437 1442 1443 1448 1452 1451 1448 1452 1452 1455 1458 1460 1461 1463 1467 1469 1471 1473 1475 1475 1478 1479 1481 1459 1458 1464
1507 1502 1498 1494 1489 1482 1476 1470 1465 1461 1459 1454 1450 1447 1444 1441 1438 1435 1433 1432 1432 1432 1433 1440 1445 1448 1448 1444 1446 1449 1453 1456 1460 1462 1463 1465 1469 1472 1475 1474 1477 1475 1480 1471 1462 1455 1457
1503 1499 1494 1489 1485 1479 1472 1466 1462 1457 1453 1449 1445 1443 1440 1437 1434 1432 1431 1428 1428 1429 1433 1436 1443 1450 1441 1438 1441 1446 1451 1455 1459 1462 1465 1467 1468 1471 1473 1475 1479 1471 1474 1468 1464 1456 1457
1501 1497 1492 1487 1483 1475 1469 1463 1458 1453 1448 1445 1442 1439 1435 1433 1431 1429 1429 1426 1429 1429 1426 1426 1430 1430 1429 1435 1439 1445 1449 1454 1458 1462 1463 1465 1466 1468 1466 1467 1465 1462 1464 1468 1458 1453 1457
1500 1494 1490 1483 1478 1472 1466 1460 1454 1449 1445 1441 1439 1435 1432 1429 1427 1425 1426 1426 1424 1424 1422 1423 1427 1431 1433 1434 1440 1445 1448 1452 1458 1460 1462 1469 1470 1462 1461 1460 1462 1463 1468 1470 1463 1458 1458
1498 1492 1486 1480 1474 1468 1462 1456 1451 1446 1442 1439 1436 1432 1429 1426 1423 1422 1421 1420 1419 1422 1420 1421 1426 1430 1434 1436 1437 1441 1448 1450 1455 1460 1464 1465 1460 1461 1463 1464 1468 1470 1471 1472 1471 1463 1460
1496 1489 1483 1478 1472 1466 1460 1454 1449 1444 1440 1436 1433 1429 1424 1421 1422 1419 1417 1417 1416 1422 1419 1419 1423 1427 1432 1433 1437 1442 1447 1451 1455 1460 1461 1465 1460 1461 1463 1465 1466 1473 1465 1468 1469 1473 1478
1494 1488 1481 1476 1470 1464 1458 1452 1447 1443 1438 1433 1429 1425 1422 1420 1416 1416 1417 1415 1414 1419 1400 1418 1422 1425 1430 1432 1434 1444 1447 1451 1454 1455 1463 1462 1460 1463 1465 1463 1464 1470 1469 1472 1474 1478 1482
1493 1486 1479 1474 1468 1462 1456 1450 1445 1440 1435 1430 1425 1421 1415 1409 1409 1410 1414 1413 1417 1416 1402 1414 1419 1424 1429 1432 1434 1442 1448 1452 1453 1454 1456 1458 1461 1461 1462 1463 1467 1470 1471 1474 1477 1480 1495
1491 1485 1478 1472 1466 1460 1454 1448 1443 1438 1433 1427 1421 1415 1407 1405 1406 1408 1412 1415 1420 1412 1411 1417 1417 1423 1427 1431 1438 1443 1447 1453 1454 1465 1466 1461 1462 1461 1463 1465 1468 1470 1475 1489 1492 1487 1483
1488 1483 1476 1470 1464 1458 1453 1446 1441 1435 1430 1424 1418 1410 1406 1405 1406 1407 1413 1417 1416 1401 1406 1411 1416 1424 1428 1431 1439 1443 1449 1453 1452 1452 1456 1468 1467 1459 1460 1463 1467 1470 1474 1484 1475 1471 1460
1486 1483 1475 1470 1464 1457 1451 1445 1439 1433 1428 1421 1415 1409 1408 1409 1409 1411 1414 1416 1406 1398 1402 1406 1417 1425 1430 1432 1436 1443 1448 1450 1449 1451 1456 1459 1455 1450 1456 1459 1461 1470 1478 1471 1477 1467 1479
1485 1481 1474 1469 1463 1456 1450 1444 1438 1432 1425 1418 1414 1412 1412 1414 1413 1415 1417 1410 1410 1398 1402 1409 1414 1415 1426 1432 1433 1438 1445 1442 1446 1448 1448 1448 1456 1452 1456 1459 1461 1464 1466 1482 1482 1497 1467
1485 1480 1473 1467 1462 1455 1449 1443 1436 1430 1422 1415 1413 1415 1417 1418 1419 1419 1416 1417 1410 1406 1407 1406 1410 1414 1418 1428 1429 1436 1440 1435 1441 1443 1447 1449 1452 1462 1462 1463 1461 1466 1467 1469 1469 1468 1476
1484 1479 1473 1467 1461 1455 1448 1442 1436 1429 1420 1416 1415 1418 1421 1420 1420 1419 1421 1420 1410 1409 1407 1405 1406 1410 1417 1424 1430 1433 1433 1434 1437 1439 1445 1450 1454 1463 1460 1453 1453 1454 1460 1463 1468 1466 1455
1482 1478 1472 1466 1460 1454 1448 1441 1435 1428 1423 1420 1421 1424 1424 1424 1423 1419 1423 1417 1412 1413 1409 1408 1409 1409 1418 1425 1433 1428 1428 1436 1437 1440 1443 1449 1458 1466 1460 1451 1449 1451 1451 1452 1452 1452 1450
1481 1478 1472 1467 1461 1455 1449 1442 1436 1430 1425 1424 1426 1427 1427 1426 1422 1423 1423 1418 1419 1417 1414 1412 1413 1414 1419 1424 1420 1428 1433 1439 1440 1442 1443 1447 1449 1458 1460 1447 1451 1462 1452 1447 1448 1450 1436
1480 1478 1473 1468 1462 1456 1450 1444 1438 1431 1428 1426 1426 1428 1428 1425 1425 1426 1422 1420 1419 1418 1419 1418 1418 1418 1420 1425 1426 1428 1432 1441 1444 1444 1446 1449 1455 1455 1447 1443 1444 1446 1442 1439 1444 1438 1435
1480 1477 1473 1469 1464 1457 1452 1447 1441 1436 1430 1430 1431 1430 1426 1421 1422 1424 1422 1428 1422 1422 1421 1421 1421 1421 1422 1423 1427 1428 1431 1435 1439 1445 1448 1449 1460 1452 1447 1440 1440 1439 1432 1431 1428 1426 1421
1479 1476 1473 1470 1466 1460 1454 1449 1444 1439 1434 1434 1433 1432 1432 1423 1421 1423 1422 1425 1425 1423 1427 1425 1423 1424 1426 1431 1431 1432 1432 1434 1436 1439 1445 1450 1455 1455 1443 1431 1433 1429 1421 1419 1420 1415 1413
1479 1476 1472 1470 1466 1461 1457 1452 1448 1444 1440 1438 1438 1437 1436 1428 1425 1423 1423 1424 1425 1425 1426 1428 1428 1427 1434 1432 1432 1432 1433 1435 1437 1439 1441 1447 1453 1454 1445 1439 1432 1410 1409 1411 1413 1407 1403
1478 1475 1472 1468 1465 1460 1456 1452 1449 1446 1444 1441 1439 1438 1437 1432 1424 1423 1424 1425 1427 1427 1428 1430 1432 1433 1433 1433 1431 1429 1432 1434 1432 1434 1438 1442 1449 1447 1441 1437 1420 1405 1406 1408 1410 1405 1400
1477 1474 1471 1468 1464 1460 1457 1453 1449 1446 1444 1442 1441 1440 1439 1437 1425 1424 1424 1424 1427 1429 1431 1431 1433 1433 1434 1433 1432 1432 1430 1428 1430 1435 1435 1439 1444 1444 1443 1437 1428 1405 1403 1404 1406 1407 1397
1475 1472 1469 1465 1464 1460 1457 1452 1449 1446 1443 1443 1442 1440 1438 1436 1428 1425 1424 1425 1425 1426 1429 1431 1433 1434 1434 1433 1435 1431 1431 1424 1427 1424 1434 1438 1440 1440 1438 1435 1423 1402 1401 1403 1407 1405 1393
1472 1468 1466 1463 1461 1459 1456 1452 1449 1446 1443 1441 1441 1440 1440 1437 1428 1427 1425 1425 1425 1425 1427 1432 1434 1434 1435 1435 1434 1433 1436 1428 1426 1418 1421 1426 1432 1433 1433 1434 1433 1400 1400 1404 1400 1394 1394
1469 1466 1463 1460 1458 1456 1453 1451 1448 1444 1442 1440 1440 1439 1438 1437 1429 1425 1423 1423 1424 1425 1426 1428 1430 1429 1431 1433 1437 1435 1434 1432 1426 1426 1412 1421 1412 1411 1417 1414 1399 1397 1395 1394 1394 1394 1393